Weather reports worldwide

Advertisment
Orense, Spain (8048): temperature & dewpoint: 15.01.2020 19:00:00 - 21.01.2020 19:00:00 (CET)Orense, Spain (8048): wind speed: 15.01.2020 19:00:00 - 21.01.2020 19:00:00 (CET)Orense, Spain (8048): wind direction: 15.01.2020 19:00:00 - 21.01.2020 19:00:00 (CET)Orense, Spain (8048): reduced air pressure: 15.01.2020 19:00:00 - 21.01.2020 19:00:00 (CET)Orense, Spain (8048): visibility: 15.01.2020 19:00:00 - 21.01.2020 19:00:00 (CET)Orense, Spain (8048): precipitation: 15.01.2020 19:00:00 - 21.01.2020 19:00:00 (CET)
Date & Time tt [°C] td [°C] ff [km/h] ff [kn] dd ppp [hPa] vv [km] rr [mm]
21.01.2020 19:00:00 - - - - - - - -
21.01.2020 18:00:00 11,6 1,5 9 5 ENE 1020,9 20 0,0
21.01.2020 17:00:00 13,2 1,5 11 6 NE 1020,6 20 0,0
21.01.2020 16:00:00 12,7 1,7 4 2 NE 1021,1 20 -
21.01.2020 15:00:00 13,2 1,5 9 5 NNE 1021,6 20 0,0
21.01.2020 14:00:00 12,5 1,5 5 3 NNE 1023,2 20 0,0
21.01.2020 13:00:00 10,3 2,4 4 2 SW 1024,4 20 -
21.01.2020 12:00:00 8,2 2,2 4 2 SSE 1026,2 20 0,0
21.01.2020 11:00:00 4,1 1,0 2 1 SSW 1027,0 17 0,0
21.01.2020 10:00:00 0,6 -0,9 4 2 S 1027,7 20 -
21.01.2020 09:00:00 -0,3 -1,6 4 2 ESE 1027,8 19 0,0
21.01.2020 08:00:00 -0,7 -2,0 2 1 S 1028,4 20 0,0
21.01.2020 07:00:00 0,2 -1,7 0 0 N 1028,5 20 -
21.01.2020 06:00:00 0,9 -1,7 5 3 W 1028,5 20 0,0
21.01.2020 05:00:00 2,4 -1,4 2 1 E 1028,8 20 0,0
21.01.2020 04:00:00 3,9 -1,1 5 3 NW 1029,2 20 -
21.01.2020 03:00:00 4,5 -1,5 5 3 WNW 1029,0 20 0,0
21.01.2020 02:00:00 5,3 -1,8 8 4 N 1029,1 20 0,0
21.01.2020 01:00:00 5,6 -1,8 8 4 N 1029,7 20 -
21.01.2020 00:00:00 6,1 -2,0 5 3 N 1029,6 20 0,0
20.01.2020 23:00:00 6,3 -2,3 4 2 SW 1029,5 20 0,0
20.01.2020 22:00:00 6,9 -3,1 8 4 N 1029,1 20 -
20.01.2020 21:00:00 7,3 -2,7 9 5 NE 1028,8 20 0,0
20.01.2020 20:00:00 7,9 -2,7 8 4 NE 1028,6 20 0,0
20.01.2020 19:00:00 8,7 -2,6 9 5 NNE 1027,9 20 -
20.01.2020 18:00:00 10,4 -2,3 8 4 NNE 1027,2 20 0,0
20.01.2020 17:00:00 11,3 -2,5 9 5 NNE 1026,8 20 0,0
20.01.2020 16:00:00 12,4 -3,4 8 4 NE 1026,6 20 -
20.01.2020 15:00:00 12,1 -4,5 9 5 NE 1027,2 20 0,0
20.01.2020 14:00:00 11,8 -2,1 8 4 NNE 1028,2 20 0,0
20.01.2020 13:00:00 10,8 -2,3 8 4 N 1029,7 20 -
20.01.2020 12:00:00 9,4 -2,3 8 4 N 1031,0 20 0,0
20.01.2020 11:00:00 7,2 -1,8 8 4 NNE 1031,4 19 0,0
20.01.2020 10:00:00 2,2 -0,6 4 2 ESE 1032,0 20 -
20.01.2020 09:00:00 2,6 -0,9 2 1 ESE 1031,9 20 0,0
20.01.2020 08:00:00 2,8 -0,8 4 2 E 1031,7 20 0,0
20.01.2020 07:00:00 1,3 -1,4 4 2 W 1031,3 20 -
20.01.2020 06:00:00 0,9 -1,5 2 1 E 1031,9 20 0,0
20.01.2020 05:00:00 1,2 -1,4 2 1 SSW 1032,3 20 0,0
20.01.2020 04:00:00 1,2 -1,5 4 2 NNW 1033,0 20 -
20.01.2020 03:00:00 2,5 -1,5 2 1 SW 1033,5 20 0,0
20.01.2020 02:00:00 5,4 -1,5 4 2 N 1033,9 20 0,0
20.01.2020 01:00:00 3,0 -1,2 2 1 NNE 1034,5 20 -
20.01.2020 00:00:00 4,0 -1,8 2 1 E 1034,6 20 0,0
19.01.2020 23:00:00 6,1 -2,3 4 2 WSW 1034,3 20 0,0
19.01.2020 22:00:00 7,3 -2,7 8 4 NNE 1033,7 20 -
19.01.2020 21:00:00 8,1 -3,1 8 4 NE 1033,6 20 0,0
19.01.2020 20:00:00 8,7 -0,9 4 2 NNE 1033,0 20 0,0
19.01.2020 19:00:00 10,1 -0,4 5 3 NNE 1032,4 20 -
19.01.2020 18:00:00 11,8 -1,0 9 5 N 1031,9 20 0,0
19.01.2020 17:00:00 13,2 -0,5 9 5 N 1031,2 20 0,0
19.01.2020 16:00:00 13,6 -0,1 11 6 NE 1030,6 20 -
19.01.2020 15:00:00 13,4 0,7 11 6 NNE 1030,8 20 0,0
19.01.2020 14:00:00 13,3 1,6 9 5 NNE 1031,2 20 0,0
19.01.2020 13:00:00 12,6 1,9 9 5 NE 1031,8 20 -
19.01.2020 12:00:00 11,7 2,7 5 3 NNE 1032,3 20 0,0
19.01.2020 11:00:00 10,2 2,8 4 2 SE 1032,1 20 0,0
19.01.2020 10:00:00 8,8 2,8 4 2 NNW 1030,7 20 -
19.01.2020 09:00:00 9,3 4,1 5 3 WNW 1029,5 20 0,0
19.01.2020 08:00:00 9,2 5,0 4 2 W 1027,9 20 0,0
19.01.2020 07:00:00 9,9 5,7 8 4 N 1026,8 20 -
19.01.2020 06:00:00 9,2 7,1 4 2 WNW 1026,3 20 0,0
19.01.2020 05:00:00 8,2 7,9 5 3 W 1025,9 11 0,0
19.01.2020 04:00:00 8,0 7,6 0 0 N 1025,8 14 -
19.01.2020 03:00:00 8,3 7,9 2 1 SSW 1025,5 10 0,0
19.01.2020 02:00:00 8,4 8,1 4 2 E 1025,4 7 0,0
19.01.2020 01:00:00 8,5 8,1 2 1 SSE 1025,0 3,1 -
19.01.2020 00:00:00 8,8 8,3 2 1 WNW 1024,3 6 0,0
18.01.2020 23:00:00 9,1 8,6 2 1 S 1023,2 3,8 0,8
18.01.2020 22:00:00 9,2 8,6 2 1 NNW 1022,6 3,1 -
18.01.2020 21:00:00 9,4 8,5 2 1 W 1022,5 6 0,2
18.01.2020 20:00:00 9,5 8,3 4 2 SSE 1022,0 9 1,0
18.01.2020 19:00:00 10,2 8,3 2 1 W 1022,0 - -
18.01.2020 18:00:00 11,2 7,5 5 3 WSW 1021,8 6 0,6
18.01.2020 17:00:00 12,3 6,6 15 8 WSW 1021,2 19 0,2
18.01.2020 16:00:00 12,3 8,9 13 7 W 1020,9 4,2 -
18.01.2020 15:00:00 15,7 8,7 16 9 W 1020,0 20 0,0
18.01.2020 14:00:00 15,5 11,3 15 8 WSW 1019,6 17 0,0
18.01.2020 13:00:00 16,5 12,1 16 9 WSW 1020,1 18 -
18.01.2020 12:00:00 14,3 9,1 9 5 SSE 1021,1 20 0,0
18.01.2020 11:00:00 12,9 8,2 8 4 SSE 1021,6 20 0,0
18.01.2020 10:00:00 11,4 7,1 8 4 S 1022,0 20 -
18.01.2020 09:00:00 10,7 6,6 8 4 S 1022,9 20 0,0
18.01.2020 08:00:00 10,6 6,5 13 7 S 1022,7 20 0,0
18.01.2020 07:00:00 10,2 6,3 5 3 S 1023,4 20 -
18.01.2020 06:00:00 9,7 6,0 8 4 SSW 1023,6 20 0,2
18.01.2020 05:00:00 10,4 5,0 8 4 S 1024,5 19 0,0
18.01.2020 04:00:00 10,1 4,2 8 4 S 1025,2 20 -
18.01.2020 03:00:00 9,1 4,5 8 4 SE 1026,8 20 0,0
18.01.2020 02:00:00 6,9 6,3 4 2 SE 1027,7 18 0,0
18.01.2020 01:00:00 7,0 6,3 0 0 N 1029,2 11 -
18.01.2020 00:00:00 7,2 6,0 2 1 SW 1029,7 17 0,0
17.01.2020 23:00:00 7,6 6,2 2 1 SSE 1030,3 14 0,0
17.01.2020 22:00:00 8,0 6,6 4 2 SW 1030,3 16 -
17.01.2020 21:00:00 8,5 6,8 2 1 W 1030,6 18 0,0
17.01.2020 20:00:00 9,0 7,1 2 1 SW 1031,0 14 0,0
17.01.2020 19:00:00 9,7 7,1 2 1 E 1031,5 16 -
17.01.2020 18:00:00 10,6 7,7 2 1 ESE 1030,8 - 0,0
17.01.2020 17:00:00 11,4 6,3 2 1 NE 1030,9 20 0,0
17.01.2020 16:00:00 11,6 5,9 4 2 NE 1030,7 20 -
17.01.2020 15:00:00 11,4 6,1 4 2 N 1031,2 20 0,0
17.01.2020 14:00:00 11,4 6,3 4 2 NE 1031,3 20 0,0
17.01.2020 13:00:00 10,7 8,6 4 2 WNW 1031,8 20 -
17.01.2020 12:00:00 10,0 8,3 2 1 SSE 1031,9 20 0,0
17.01.2020 11:00:00 8,4 7,5 2 1 SSW 1031,3 20 0,0
17.01.2020 10:00:00 6,2 5,9 2 1 W 1030,9 20 -
17.01.2020 09:00:00 6,7 5,8 4 2 SE 1029,8 19 0,0
17.01.2020 08:00:00 7,0 6,7 4 2 SSE 1029,0 18 0,4
17.01.2020 07:00:00 6,3 6,2 2 1 NNW 1027,9 16 -
17.01.2020 06:00:00 6,2 5,6 2 1 SE 1026,8 19 0,0
17.01.2020 05:00:00 6,6 5,7 4 2 W 1025,8 20 0,0
17.01.2020 04:00:00 7,7 6,5 4 2 ESE 1025,4 20 -
17.01.2020 03:00:00 8,9 7,2 2 1 E 1024,7 20 0,0
17.01.2020 02:00:00 9,3 8,5 4 2 S 1024,2 5 0,8
17.01.2020 01:00:00 9,7 8,1 5 3 SE 1023,0 20 -
17.01.2020 00:00:00 10,0 8,1 8 4 SE 1022,4 20 0,0
16.01.2020 23:00:00 10,2 8,5 8 4 SSE 1021,9 20 0,2
16.01.2020 22:00:00 10,5 9,1 8 4 SE 1021,4 20 -
16.01.2020 21:00:00 10,8 9,7 8 4 W 1021,2 2,5 2,0
16.01.2020 20:00:00 10,6 9,4 5 3 SE 1019,7 16 1,0
16.01.2020 19:00:00 11,1 9,2 4 2 SSE 1018,7 - -
16.01.2020 18:00:00 13,8 7,3 13 7 SSE 1014,4 20 0,0
16.01.2020 17:00:00 14,0 6,8 18 10 SSW 1016,0 19 0,0
16.01.2020 16:00:00 14,4 6,2 9 5 S 1016,1 20 -
16.01.2020 15:00:00 15,3 5,8 16 9 SSE 1016,5 20 0,0
16.01.2020 14:00:00 15,4 8,2 13 7 SSE 1017,5 20 0,0
16.01.2020 13:00:00 15,2 9,3 11 6 SSE 1018,1 20 -
16.01.2020 12:00:00 15,3 10,1 9 5 S 1018,3 19 0,0
16.01.2020 11:00:00 14,8 10,4 11 6 SE 1018,2 19 0,0
16.01.2020 10:00:00 15,6 9,3 11 6 SSE 1018,0 20 -
16.01.2020 09:00:00 15,2 9,1 11 6 S 1017,6 20 0,0
16.01.2020 08:00:00 14,3 9,9 5 3 SSW 1017,6 20 0,0
16.01.2020 07:00:00 14,5 10,5 11 6 SSE 1017,8 20 -
16.01.2020 06:00:00 13,8 11,3 9 5 SSE 1018,2 20 0,0
16.01.2020 05:00:00 13,5 11,5 9 5 SE 1018,4 19 1,0
16.01.2020 04:00:00 14,2 11,4 9 5 SSE 1018,4 14 -
16.01.2020 03:00:00 14,8 10,4 13 7 SSE 1018,2 20 0,0
16.01.2020 02:00:00 14,8 8,7 5 3 ESE 1018,6 20 0,0
16.01.2020 01:00:00 15,2 8,2 5 3 SE 1019,3 20 -
16.01.2020 00:00:00 14,9 9,9 5 3 E 1019,5 20 0,0
15.01.2020 23:00:00 14,8 10,4 5 3 SE 1019,4 20 0,0
15.01.2020 22:00:00 14,1 10,1 4 2 SE 1018,9 20 -
15.01.2020 21:00:00 10,9 8,8 2 1 S 1019,7 19 0,0
15.01.2020 20:00:00 10,9 7,8 2 1 SW 1019,6 20 0,0
15.01.2020 19:00:00 13,3 8,1 2 1 W 1019,4 20 -

tt = temperature
td = dewpoint
ff = wind speed
dd = wind direction
ppp = reduced air pressure
vv = visibility
rr = precipitation

Next stations